Total_Precipitation_Accumulation
1.06 1.18 1.23 1.21 1.23 1.22 1.17 1.11 1.07 1.05 1.09 1.17 1.23 1.40 1.57 1.75 1.95 2.11 2.12 2.10 2.11 2.08 2.01 2.11 2.23 2.27 2.39 2.42 2.44 2.34 2.19 2.14 2.08 1.89 1.69 1.58 1.77 1.78 1.68 1.58 1.44 1.38 1.38
1.05 1.10 1.18 1.14 1.11 1.15 1.11 1.16 1.05 0.96 0.95 1.00 1.17 1.37 1.50 1.59 1.62 1.72 1.78 1.81 1.85 1.92 1.90 1.87 1.93 1.98 2.13 2.28 2.38 2.36 2.35 2.23 2.16 2.16 1.97 1.74 1.66 1.72 1.76 1.81 1.70 1.46 1.41
1.14 1.25 1.23 1.15 1.12 1.16 1.09 1.16 1.07 1.00 0.99 0.99 1.11 1.25 1.30 1.38 1.43 1.47 1.56 1.65 1.67 1.64 1.68 1.62 1.61 1.70 1.83 1.97 2.06 2.15 2.28 2.31 2.33 2.31 2.23 2.04 1.79 1.78 1.85 1.86 1.87 1.91 1.64
1.38 1.40 1.31 1.23 1.14 1.08 1.05 1.06 1.04 1.03 1.05 1.07 1.19 1.24 1.25 1.25 1.38 1.42 1.46 1.45 1.39 1.31 1.34 1.32 1.35 1.39 1.48 1.65 1.79 1.99 2.18 2.30 2.37 2.39 2.34 2.12 1.94 1.87 1.84 1.88 1.98 2.03 1.99
1.35 1.31 1.28 1.18 1.04 0.97 0.98 0.93 0.99 1.06 1.06 1.12 1.18 1.25 1.28 1.28 1.33 1.40 1.34 1.23 1.19 1.15 1.10 0.99 1.01 1.10 1.14 1.25 1.27 1.54 1.80 2.03 2.16 2.23 2.22 2.08 1.88 1.78 1.65 1.69 1.83 2.01 2.07
1.27 1.23 1.12 1.02 0.99 0.92 0.87 0.84 0.88 0.91 0.95 1.00 1.05 1.19 1.30 1.18 1.31 1.29 1.15 1.02 0.97 1.01 0.96 0.87 0.86 0.91 0.86 0.85 0.88 1.11 1.41 1.58 1.76 1.95 2.02 1.90 1.74 1.68 1.73 1.71 1.72 1.78 1.82
1.05 1.01 0.90 0.85 0.83 0.78 0.75 0.77 0.83 0.85 0.89 0.92 0.90 1.04 1.13 1.20 1.15 0.98 1.01 0.96 0.95 0.97 0.98 0.99 0.89 0.85 0.94 0.84 0.80 0.90 0.98 1.10 1.26 1.53 1.74 1.73 1.83 1.76 1.67 1.59 1.61 1.65 1.64
0.93 0.93 0.86 0.78 0.74 0.70 0.67 0.71 0.82 0.83 0.80 0.84 0.84 0.82 0.89 1.03 1.02 0.85 0.88 0.85 0.95 1.02 1.04 1.11 1.11 1.04 1.02 1.09 1.03 1.03 0.99 0.93 1.04 0.95 1.13 1.51 1.67 1.75 1.72 1.75 1.84 1.77 1.61
0.68 0.74 0.70 0.63 0.66 0.70 0.68 0.73 0.77 0.76 0.77 0.75 0.79 0.80 0.83 0.88 0.88 0.81 0.83 0.86 0.99 0.99 0.94 1.06 1.10 1.05 1.12 1.20 1.29 1.33 1.25 1.08 1.22 1.23 1.12 1.24 1.41 1.47 1.59 1.68 1.74 1.66 1.60
0.43 0.48 0.53 0.51 0.55 0.62 0.71 0.78 0.75 0.71 0.77 0.76 0.73 0.70 0.71 0.72 0.81 0.73 0.83 0.91 0.96 0.96 0.97 1.03 1.20 1.12 1.10 1.07 1.13 1.25 1.23 1.08 0.97 1.01 0.98 0.89 0.83 0.96 1.18 1.32 1.60 1.72 1.66
0.37 0.39 0.41 0.42 0.47 0.57 0.63 0.60 0.59 0.62 0.69 0.71 0.72 0.67 0.65 0.71 0.83 0.84 0.90 0.90 0.94 1.02 1.10 1.13 1.11 1.22 1.06 1.00 1.00 0.99 1.08 1.08 1.06 1.10 1.17 1.05 0.93 0.89 0.94 1.01 1.23 1.47 1.62
0.33 0.36 0.36 0.33 0.34 0.39 0.45 0.49 0.50 0.51 0.55 0.55 0.57 0.56 0.58 0.68 0.75 0.76 0.78 0.83 0.93 0.93 0.98 0.97 0.95 1.06 0.92 0.83 0.78 0.83 0.91 0.97 1.05 1.16 1.14 1.08 1.06 0.99 0.98 1.01 1.08 1.20 1.31
0.33 0.34 0.34 0.32 0.33 0.35 0.39 0.43 0.46 0.50 0.53 0.51 0.48 0.47 0.52 0.57 0.65 0.68 0.66 0.66 0.71 0.72 0.68 0.79 0.84 0.83 0.78 0.71 0.76 0.80 0.81 0.83 0.93 1.01 1.02 0.97 0.96 1.01 1.02 1.02 1.06 1.11 1.11
0.29 0.31 0.32 0.33 0.35 0.35 0.39 0.43 0.49 0.49 0.45 0.43 0.45 0.47 0.51 0.54 0.56 0.57 0.60 0.60 0.59 0.64 0.62 0.67 0.71 0.69 0.67 0.68 0.72 0.76 0.79 0.83 0.87 0.90 0.89 0.92 0.94 1.01 1.08 1.05 1.06 1.13 1.20
0.28 0.28 0.28 0.31 0.35 0.36 0.34 0.35 0.41 0.43 0.41 0.42 0.44 0.49 0.52 0.54 0.52 0.52 0.51 0.56 0.62 0.67 0.73 0.67 0.65 0.65 0.65 0.71 0.74 0.73 0.76 0.80 0.81 0.80 0.84 0.87 0.87 0.92 0.97 0.97 1.00 1.06 1.10
0.30 0.29 0.29 0.31 0.35 0.35 0.34 0.34 0.37 0.37 0.40 0.40 0.37 0.38 0.35 0.36 0.41 0.42 0.43 0.48 0.57 0.63 0.74 0.79 0.82 0.87 0.88 0.86 0.83 0.74 0.69 0.71 0.77 0.83 0.85 0.86 0.87 0.85 0.89 0.93 0.97 1.05 1.08
0.38 0.35 0.33 0.33 0.32 0.33 0.35 0.37 0.38 0.35 0.31 0.30 0.30 0.30 0.30 0.31 0.34 0.37 0.39 0.44 0.49 0.55 0.70 0.86 0.89 0.87 0.83 0.80 0.76 0.69 0.63 0.61 0.65 0.74 0.85 0.93 0.93 0.92 0.94 0.99 1.00 0.97 0.98
0.52 0.51 0.44 0.39 0.37 0.35 0.36 0.40 0.45 0.47 0.40 0.31 0.29 0.30 0.29 0.29 0.30 0.35 0.44 0.51 0.49 0.52 0.67 0.77 0.79 0.78 0.72 0.66 0.59 0.54 0.54 0.54 0.54 0.59 0.63 0.72 0.88 0.98 1.05 1.08 1.11 1.13 1.13
0.50 0.53 0.52 0.51 0.47 0.44 0.44 0.49 0.51 0.46 0.39 0.36 0.33 0.31 0.30 0.31 0.32 0.33 0.38 0.41 0.42 0.44 0.48 0.51 0.51 0.53 0.53 0.50 0.48 0.50 0.53 0.54 0.55 0.55 0.55 0.59 0.69 0.84 1.01 1.11 1.16 1.23 1.21
0.35 0.42 0.49 0.54 0.54 0.51 0.52 0.53 0.52 0.49 0.40 0.36 0.34 0.33 0.33 0.32 0.29 0.30 0.31 0.34 0.39 0.41 0.41 0.41 0.42 0.43 0.43 0.43 0.45 0.48 0.54 0.57 0.55 0.56 0.60 0.64 0.74 0.79 0.84 0.95 1.11 1.17 1.11
0.28 0.31 0.36 0.42 0.48 0.48 0.48 0.50 0.52 0.52 0.46 0.41 0.38 0.37 0.38 0.36 0.37 0.34 0.32 0.33 0.35 0.37 0.38 0.40 0.43 0.43 0.44 0.48 0.49 0.50 0.53 0.57 0.58 0.59 0.61 0.66 0.74 0.83 0.89 0.91 0.94 0.99 1.05
0.27 0.28 0.30 0.33 0.38 0.42 0.44 0.44 0.49 0.52 0.51 0.47 0.46 0.45 0.45 0.41 0.40 0.40 0.40 0.40 0.41 0.42 0.43 0.47 0.50 0.48 0.46 0.49 0.54 0.56 0.58 0.57 0.57 0.61 0.67 0.70 0.73 0.78 0.86 0.94 0.95 0.96 0.99
0.23 0.24 0.26 0.30 0.34 0.37 0.38 0.39 0.42 0.44 0.46 0.45 0.44 0.44 0.43 0.42 0.42 0.43 0.46 0.46 0.46 0.48 0.50 0.57 0.59 0.56 0.54 0.55 0.57 0.57 0.60 0.61 0.63 0.64 0.70 0.73 0.74 0.76 0.81 0.86 0.88 0.91 0.93
0.26 0.27 0.31 0.34 0.33 0.31 0.32 0.35 0.37 0.39 0.42 0.44 0.46 0.47 0.46 0.45 0.44 0.43 0.45 0.46 0.46 0.47 0.48 0.52 0.56 0.58 0.61 0.64 0.65 0.63 0.63 0.68 0.66 0.64 0.71 0.80 0.80 0.79 0.82 0.85 0.86 0.89 0.97
0.31 0.30 0.32 0.35 0.36 0.35 0.33 0.33 0.35 0.38 0.42 0.46 0.48 0.49 0.49 0.49 0.48 0.47 0.47 0.48 0.48 0.47 0.48 0.48 0.51 0.55 0.61 0.67 0.67 0.65 0.73 0.76 0.72 0.65 0.63 0.72 0.77 0.80 0.85 0.89 0.93 1.01 1.12
0.35 0.35 0.35 0.34 0.35 0.37 0.39 0.40 0.41 0.44 0.46 0.48 0.50 0.50 0.51 0.54 0.55 0.55 0.55 0.54 0.52 0.49 0.48 0.50 0.54 0.54 0.56 0.63 0.70 0.75 0.76 0.71 0.73 0.76 0.69 0.68 0.75 0.81 0.91 1.00 1.05 1.14 1.22